Back to catalog

DELTA 1 DEB

AliveSSO
NORAD 10748·DEBRIS·🇺🇸 United States

Launched Jul 29, 1976 from Vandenberg Space Force Base

Loading…

Next Passes (next 24 hours)

TLE

FreshSource: Space-Track

Epoch: Sep 14, 2026, 10:32 UTC

1 10748U 76077AV  26257.43952184 -.00000037  00000-0  82284-4 0  9994
2 10748 102.4969 243.0678 0073201 290.7415 224.8995 12.29765926249681

Track DELTA 1 DEB in real time with AllMySat

Download on the App Store